Change the Weather History Date:

Sunday, January 8, 2012

  Actual Average Record
Temperature  
Mean Temperature 22 °F -  
Max Temperature 30 °F 19 °F 48 °F (2008)
Min Temperature 14 °F 5 °F -23 °F (2015)
Degree Days  
Heating Degree Days 43    
Moisture  
Dew Point 12 °F    
Average Humidity 71    
Maximum Humidity 86    
Minimum Humidity 63    
Precipitation  
Precipitation 0.00 in - - ()
Sea Level Pressure  
Sea Level Pressure 30.19 in    
Wind  
Wind Speed 7 mph ()    
Max Wind Speed 12 mph    
Max Gust Speed 18 mph    
Visibility 16.7 miles    
Events Snow    
Averages and records for this station are not official NWS values.
T = Trace of Precipitation, MM = Missing Value Source: Averaged Metar Reports

Daily Weather History Graph

Daily Weather History Graph

Search for Another Location

Airport or City:

Trip Planner

Search our weather history database for the weather conditions in past years. The results will help you decide how hot, cold, wet, or windy it might be!

Date:

Astronomy

Jan. 08, 2012 Rise Set
Actual Time 7:36 AM EST 4:29 PM EST
Civil Twilight 7:02 AM EST 5:03 PM EST
Nautical Twilight 6:25 AM EST 5:40 PM EST
Astronomical Twilight 5:49 AM EST 6:16 PM EST
Moon 4:10 PM EST (1/8) 6:52 AM EST (1/8)
Length of Visible Light 10h 00m
Length of Day
8h 53m
Full, 100% of the Moon is Illuminated
Jan 8
Full
Jan 9
Full
Jan 16
Last Quarter
Jan 23
New
Jan 30
First Quarter

Hourly Weather History & Observations

Time (EST) Temp. Windchill Dew Point Humidity Pressure Visibility Wind Dir Wind Speed Gust Speed Precip Events Conditions
12:00 AM 30.2 °F 20.8 °F 26.6 °F 86% 29.87 in 20.0 mi WSW 11.5 mph 17.3 mph N/A Snow Light Snow
1:00 AM 30.2 °F 21.9 °F 24.8 °F 80% 29.91 in 25.0 mi West 9.2 mph 18.4 mph N/A   Overcast
2:00 AM 26.6 °F 16.8 °F 19.4 °F 74% 29.96 in 25.0 mi West 10.4 mph 18.4 mph N/A   Mostly Cloudy
3:00 AM 24.8 °F 14.6 °F 17.6 °F 74% 30.01 in 25.0 mi West 10.4 mph 18.4 mph N/A   Mostly Cloudy
4:00 AM 23.0 °F 14.7 °F 17.6 °F 80% 30.05 in 25.0 mi West 6.9 mph - N/A   Mostly Cloudy
5:00 AM 21.2 °F 11.7 °F 15.8 °F 80% 30.07 in 25.0 mi WNW 8.1 mph - N/A   Overcast
6:00 AM 21.2 °F 10.9 °F 14.0 °F 74% 30.11 in 25.0 mi NW 9.2 mph - N/A   Overcast
7:00 AM 19.4 °F 10.4 °F 12.2 °F 74% 30.15 in 25.0 mi WNW 6.9 mph - N/A   Mostly Cloudy
8:00 AM 19.4 °F 10.4 °F 10.4 °F 68% 30.19 in 35.0 mi WNW 6.9 mph - N/A   Mostly Cloudy
9:00 AM 17.6 °F 7.3 °F 8.6 °F 68% 30.22 in 35.0 mi WNW 8.1 mph - N/A   Mostly Cloudy
10:00 AM 17.6 °F 7.3 °F 8.6 °F 68% 30.24 in 35.0 mi West 8.1 mph - N/A   Mostly Cloudy
10:16 AM 17.6 °F 10.7 °F 8.6 °F 68% - 25.0 mi NW 4.6 mph - N/A Snow Light Snow
11:00 AM 19.4 °F 11.5 °F 8.6 °F 63% 30.25 in 15.0 mi NW 5.8 mph - N/A Snow Light Snow
12:00 PM 19.4 °F 10.4 °F 8.6 °F 63% 30.24 in 15.0 mi WNW 6.9 mph - N/A Snow Light Snow
12:33 PM 19.4 °F 14.3 °F 8.6 °F 63% - 25.0 mi SW 3.5 mph - N/A   Mostly Cloudy
1:00 PM 19.4 °F 11.5 °F 8.6 °F 63% 30.25 in 35.0 mi WSW 5.8 mph - N/A   Mostly Cloudy
2:00 PM 19.4 °F 9.5 °F 8.6 °F 63% 30.25 in 45.0 mi SW 8.1 mph - N/A   Mostly Cloudy
3:00 PM 19.4 °F 8.6 °F 8.6 °F 63% 30.27 in 45.0 mi SW 9.2 mph - N/A   Mostly Cloudy
4:00 PM 19.4 °F 9.5 °F 8.6 °F 63% 30.29 in 35.0 mi WSW 8.1 mph - N/A   Mostly Cloudy
5:00 PM 17.6 °F 9.3 °F 8.6 °F 68% 30.31 in 25.0 mi WSW 5.8 mph - N/A   Partly Cloudy
6:00 PM 15.8 °F 8.6 °F 6.8 °F 68% 30.33 in 25.0 mi West 4.6 mph - N/A   Mostly Cloudy
7:00 PM 15.8 °F - 8.6 °F 73% 30.34 in 25.0 mi SW 2.3 mph - N/A   Mostly Cloudy
8:00 PM 15.8 °F 10.2 °F 8.6 °F 73% 30.35 in 25.0 mi West 3.5 mph - N/A   Overcast
9:00 PM 15.8 °F 10.2 °F 8.6 °F 73% 30.35 in 25.0 mi WSW 3.5 mph - N/A   Overcast
10:00 PM 14.0 °F 6.5 °F 8.6 °F 79% 30.33 in 25.0 mi SSW 4.6 mph - N/A   Overcast
11:00 PM 14.0 °F 8.2 °F 8.6 °F 79% 30.33 in 25.0 mi WSW 3.5 mph - N/A   Overcast